DL1BEB Weather Reports


time (UTC)temp
C
wind
direction
speed
KPH
gust
KPH
rain 1hr
cm
rain 24hr
cm
rain mn
cm
humidity
%
barometer
mb
20260506135020 10 0.0 0.0 0.00 0.00 0.00 86 1008.6
20260506134552 10 0.0 0.0 0.00 0.00 0.00 85 1008.6
20260506134018 10 0.0 0.0 0.00 0.00 0.00 85 1008.5
20260506133550 10 0.0 0.0 0.00 0.00 0.00 85 1008.5
20260506133024 10 0.0 0.0 0.00 0.00 0.00 85 1008.5
20260506132557 10 0.0 0.0 0.00 0.00 0.00 85 1008.5
20260506132022 10 0.0 0.0 0.00 0.00 0.00 85 1008.4
20260506131049 10 0.0 0.0 0.00 0.00 0.00 84 1008.3
20260506130520 11 0.0 0.0 0.00 0.00 0.00 84 1008.4
20260506130027 11 0.0 0.0 0.00 0.00 0.00 85 1008.4
20260506125543 11 0.0 0.0 0.00 0.00 0.00 85 1008.4
20260506125028 11 0.0 0.0 0.00 0.00 0.00 85 1008.3
20260506124520 11 0.0 0.0 0.00 0.00 0.00 85 1008.3
20260506124027 11 0.0 0.0 0.00 0.00 0.00 85 1008.4
20260506123519 11 0.0 0.0 0.00 0.00 0.00 85 1008.4
20260506123026 11 0.0 0.0 0.00 0.00 0.00 84 1008.3
20260506122052 11 0.0 0.0 0.00 0.00 0.00 84 1008.2
20260506121542 11 0.0 0.0 0.00 0.00 0.00 84 1008.2
20260506121028 11 0.0 0.0 0.00 0.00 0.00 84 1008.2
20260506120540 11 0.0 0.0 0.00 0.00 0.00 83 1008.2
20260506120024 11 0.0 0.0 0.00 0.00 0.00 83 1008.1
20260506115536 11 0.0 0.0 0.00 0.00 0.00 83 1008.1
20260506115031 11 0.0 0.0 0.00 0.00 0.00 83 1008.1
20260506114524 10 0.0 0.0 0.00 0.00 0.00 82 1008.0
20260506114031 10 0.0 0.0 0.00 0.00 0.00 82 1008.0
20260506113523 10 0.0 0.0 0.00 0.00 0.00 81 1008.1
20260506113017 10 0.0 0.0 0.00 0.00 0.00 80 1008.0
20260506112529 10 0.0 0.0 0.00 0.00 0.00 79 1008.0
20260506112036 10 0.0 0.0 0.00 0.00 0.00 79 1008.0
20260506111528 10 0.0 0.0 0.00 0.00 0.00 78 1008.0
20260506111033 10 0.0 0.0 0.00 0.00 0.00 77 1007.9
20260506110525 10 0.0 0.0 0.00 0.00 0.00 77 1007.9
20260506110036 10 0.0 0.0 0.00 0.00 0.00 75 1007.9
20260506105528 10 0.0 0.0 0.00 0.00 0.00 76 1007.9
20260506105023 11 0.0 0.0 0.00 0.00 0.00 78 1008.0
20260506104556 10 0.0 0.0 0.00 0.00 0.00 79 1008.0
20260506104050 10 0.0 0.0 0.00 0.00 0.00 78 1008.0
20260506103521 10 0.0 0.0 0.00 0.00 0.00 79 1008.0
20260506103028 10 0.0 0.0 0.00 0.00 0.00 78 1007.9
20260506102521 10 0.0 0.0 0.00 0.00 0.00 78 1007.9
20260506102027 10 0.0 0.0 0.00 0.00 0.00 78 1007.9
20260506101519 10 0.0 0.0 0.00 0.00 0.00 78 1007.9
20260506101025 10 0.0 0.0 0.00 0.00 0.00 78 1007.9
20260506100521 10 0.0 0.0 0.00 0.00 0.00 77 1007.9
20260506100026 10 0.0 0.0 0.00 0.00 0.00 77 1007.9
20260506095518 10 0.0 0.0 0.00 0.00 0.00 77 1007.9
20260506095034 10 0.0 0.0 0.00 0.00 0.00 76 1007.8
20260506094526 10 0.0 0.0 0.00 0.00 0.00 76 1007.8
20260506094054 10 0.0 0.0 0.00 0.00 0.00 75 1007.8
20260506093524 10 0.0 0.0 0.00 0.00 0.00 75 1007.8
20260506093019 10 0.0 0.0 0.00 0.00 0.00 76 1007.8
20260506092531 10 0.0 0.0 0.00 0.00 0.00 77 1007.8
20260506092018 10 0.0 0.0 0.00 0.00 0.00 76 1007.8
20260506091533 10 0.0 0.0 0.00 0.00 0.00 77 1007.8
20260506091040 10 0.0 0.0 0.00 0.00 0.00 76 1007.8
20260506090531 10 0.0 0.0 0.00 0.00 0.00 75 1007.7
20260506090058 10 0.0 0.0 0.00 0.00 0.00 75 1007.8
20260506085528 10 0.0 0.0 0.00 0.00 0.00 75 1007.8
20260506085024 10 0.0 0.0 0.00 0.00 0.00 75 1007.7
20260506084516 10 0.0 0.0 0.00 0.00 0.00 75 1007.6
20260506084043 10 0.0 0.0 0.00 0.00 0.00 74 1007.5
20260506083534 10 0.0 0.0 0.00 0.00 0.00 74 1007.6
20260506083020 10 0.0 0.0 0.00 0.00 0.00 74 1007.5
20260506082532 10 0.0 0.0 0.00 0.00 0.00 75 1007.3
20260506082023 10 0.0 0.0 0.00 0.00 0.00 75 1007.3
20260506081535 9 0.0 0.0 0.00 0.00 0.00 74 1007.2
20260506080520 9 0.0 0.0 0.00 0.00 0.00 74 1007.1
20260506073103 9 0.0 0.0 0.00 0.00 0.00 77 1007.0
20260506072527 9 0.0 0.0 0.00 0.00 0.00 77 1007.0
20260506072055 9 0.0 0.0 0.00 0.00 0.00 77 1007.1
20260506071526 9 0.0 0.0 0.00 0.00 0.00 77 1007.1
20260506071017 9 0.0 0.0 0.00 0.00 0.00 76 1007.1
20260506070529 9 0.0 0.0 0.00 0.00 0.00 76 1007.1
20260506062056 9 0.0 0.0 0.00 0.00 0.00 76 1007.1
20260506061526 9 0.0 0.0 0.00 0.00 0.00 76 1007.1
20260506060519 9 0.0 0.0 0.00 0.00 0.00 76 1007.1
20260506051022 10 0.0 0.0 0.00 0.00 0.00 77 1007.1
20260506050534 10 0.0 0.0 0.00 0.00 0.00 77 1007.1
20260506045038 10 0.0 0.0 0.00 0.00 0.00 77 1007.2
20260506044530 10 0.0 0.0 0.00 0.00 0.00 77 1007.1
20260506044017 10 0.0 0.0 0.00 0.00 0.00 77 1007.1
20260506043549 10 0.0 0.0 0.00 0.00 0.00 77 1007.2
20260506043035 10 0.0 0.0 0.00 0.00 0.00 76 1007.2
20260506042547 10 0.0 0.0 0.00 0.00 0.00 76 1007.1
20260506042021 10 0.0 0.0 0.00 0.00 0.00 76 1007.1
20260506041534 10 0.0 0.0 0.00 0.00 0.00 76 1007.2
20260506041028 10 0.0 0.0 0.00 0.00 0.00 76 1007.2
20260506040520 10 0.0 0.0 0.00 0.00 0.00 75 1007.2
20260506040035 10 0.0 0.0 0.00 0.00 0.00 74 1007.2
20260506035527 10 0.0 0.0 0.00 0.00 0.00 74 1007.1
20260506035033 10 0.0 0.0 0.00 0.00 0.00 73 1007.1
20260506034525 10 0.0 0.0 0.00 0.00 0.00 73 1007.1
20260506034031 10 0.0 0.0 0.00 0.00 0.00 73 1007.1
20260506033526 10 0.0 0.0 0.00 0.00 0.00 73 1007.1
20260506032533 10 0.0 0.0 0.00 0.00 0.00 74 1007.2
20260506031526 10 0.0 0.0 0.00 0.00 0.00 74 1007.3
20260506031022 10 0.0 0.0 0.00 0.00 0.00 74 1007.3
20260506030534 10 0.0 0.0 0.00 0.00 0.00 74 1007.4
20260506030020 10 0.0 0.0 0.00 0.00 0.00 74 1007.4
20260506025533 10 0.0 0.0 0.00 0.00 0.00 74 1007.4
20260506025019 10 0.0 0.0 0.00 0.00 0.00 75 1007.4
20260506024531 10 0.0 0.0 0.00 0.00 0.00 75 1007.5
20260506024018 10 0.0 0.0 0.00 0.00 0.00 75 1007.5
20260506023530 10 0.0 0.0 0.00 0.00 0.00 76 1007.5
20260506023025 10 0.0 0.0 0.00 0.00 0.00 76 1007.6
20260506022521 10 0.0 0.0 0.00 0.00 0.00 76 1007.5
20260506022029 10 0.0 0.0 0.00 0.00 0.00 76 1007.6
20260506021525 10 0.0 0.0 0.00 0.00 0.00 76 1007.6
20260506021032 10 0.0 0.0 0.00 0.00 0.00 76 1007.7
20260506020544 10 0.0 0.0 0.00 0.00 0.00 77 1007.7
20260506020029 10 0.0 0.0 0.00 0.00 0.00 76 1007.7
20260506015521 10 0.0 0.0 0.00 0.00 0.00 77 1007.8
20260506015048 10 0.0 0.0 0.00 0.00 0.00 77 1007.8
20260506014519 10 0.0 0.0 0.00 0.00 0.00 77 1007.9
20260506014031 10 0.0 0.0 0.00 0.00 0.00 77 1007.8
20260506013543 10 0.0 0.0 0.00 0.00 0.00 77 1007.9
20260506013036 10 0.0 0.0 0.00 0.00 0.00 78 1007.9
20260506012527 10 0.0 0.0 0.00 0.00 0.00 78 1007.9
20260506012022 10 0.0 0.0 0.00 0.00 0.00 78 1007.9
20260506011535 10 0.0 0.0 0.00 0.00 0.00 78 1007.9
20260506011041 10 0.0 0.0 0.00 0.00 0.00 78 1007.9
20260506010515 10 0.0 0.0 0.00 0.00 0.00 78 1007.9
20260506010022 10 0.0 0.0 0.00 0.00 0.00 79 1007.9
20260506005534 10 0.0 0.0 0.00 0.00 0.00 79 1008.0
20260506005040 10 0.0 0.0 0.00 0.00 0.00 79 1008.0
20260506004532 10 0.0 0.0 0.00 0.00 0.00 79 1008.0
20260506003517 10 0.0 0.0 0.00 0.00 0.00 79 1008.0
20260506003032 10 0.0 0.0 0.00 0.00 0.00 79 1008.1
20260506002523 10 0.0 0.0 0.00 0.00 0.00 80 1008.2
20260506002050 11 0.0 0.0 0.00 0.00 0.00 79 1008.2
20260506001520 11 0.0 0.0 0.00 0.00 0.00 79 1008.3
20260506001027 10 0.0 0.0 0.00 0.00 0.00 79 1008.3
20260506000539 10 0.0 0.0 0.00 0.00 0.00 79 1008.3
20260506000029 11 0.0 0.0 0.00 0.00 0.00 79 1008.3
20260505235521 11 0.0 0.0 0.00 0.00 0.00 79 1008.3
20260505235028 11 0.0 0.0 0.00 0.00 0.00 79 1008.3
20260505234519 11 0.0 0.0 0.00 0.00 0.00 79 1008.3
20260505234030 11 0.0 0.0 0.00 0.00 0.00 79 1008.3
20260505233522 11 0.0 0.0 0.00 0.00 0.00 79 1008.4
20260505233016 11 0.0 0.0 0.00 0.00 0.00 80 1008.4
20260505232528 11 0.0 0.0 0.00 0.00 0.00 79 1008.5
20260505232035 11 0.0 0.0 0.00 0.00 0.00 79 1008.4
20260505231527 11 0.0 0.0 0.00 0.00 0.00 79 1008.5
20260505231053 11 0.0 0.0 0.00 0.00 0.00 80 1008.5
20260505230525 11 0.0 0.0 0.00 0.00 0.00 80 1008.6
20260505230034 11 0.0 0.0 0.00 0.00 0.00 80 1008.6
20260505225526 11 0.0 0.0 0.00 0.00 0.00 80 1008.6
20260505225033 11 0.0 0.0 0.00 0.00 0.00 80 1008.5
20260505224545 11 0.0 0.0 0.00 0.00 0.00 80 1008.6
20260505224030 11 0.0 0.0 0.00 0.00 0.00 80 1008.6
20260505223521 11 0.0 0.0 0.00 0.00 0.00 80 1008.6
20260505223028 11 0.0 0.0 0.00 0.00 0.00 80 1008.5
20260505222520 11 0.0 0.0 0.00 0.00 0.00 80 1008.5
20260505222026 11 0.0 0.0 0.00 0.00 0.00 81 1008.5
20260505221522 11 0.0 0.0 0.00 0.00 0.00 81 1008.5
20260505221027 11 0.0 0.0 0.00 0.00 0.00 82 1008.6
20260505220519 11 0.0 0.0 0.00 0.00 0.00 82 1008.6
20260505220054 11 0.0 0.0 0.00 0.00 0.00 83 1008.7
20260505215524 11 0.0 0.0 0.00 0.00 0.00 83 1008.8
20260505215031 11 0.0 0.0 0.00 0.00 0.00 83 1008.8
20260505214541 11 0.0 0.0 0.00 0.00 0.00 83 1008.8
20260505214056 11 0.0 0.0 0.00 0.00 0.00 83 1008.8
20260505213527 11 0.0 0.0 0.00 0.00 0.00 83 1008.9
20260505213053 11 0.0 0.0 0.00 0.00 0.00 83 1009.0
20260505212524 11 0.0 0.0 0.00 0.00 0.00 83 1009.0
20260505212031 11 0.0 0.0 0.00 0.00 0.00 83 1009.0
20260505211523 11 0.0 0.0 0.00 0.00 0.00 83 1009.0
20260505211050 11 0.0 0.0 0.00 0.00 0.00 83 1009.0
20260505205054 12 0.0 0.0 0.00 0.00 0.00 82 1009.0
20260505204545 12 0.0 0.0 0.00 0.00 0.00 83 1009.0
20260505204031 12 0.0 0.0 0.00 0.00 0.00 82 1009.0
20260505203523 12 0.0 0.0 0.00 0.00 0.00 82 1009.1
20260505203034 12 0.0 0.0 0.00 0.00 0.00 83 1009.2
20260505202526 12 0.0 0.0 0.00 0.00 0.00 82 1009.1
20260505202032 12 0.0 0.0 0.00 0.00 0.00 83 1009.0
20260505201524 12 0.0 0.0 0.00 0.00 0.00 83 1009.0
20260505201031 12 0.0 0.0 0.00 0.00 0.00 83 1009.0
20260505200523 12 0.0 0.0 0.00 0.00 0.00 83 1009.0
20260505200030 12 0.0 0.0 0.00 0.00 0.00 83 1009.0
20260505195522 12 0.0 0.0 0.00 0.00 0.00 82 1008.9
20260505195037 12 0.0 0.0 0.00 0.00 0.00 82 1008.8
20260505194528 12 0.0 0.0 0.00 0.00 0.00 83 1008.9
20260505194019 12 0.0 0.0 0.00 0.00 0.00 82 1008.9
20260505193531 12 0.0 0.0 0.00 0.00 0.00 83 1008.9
20260505193038 12 0.0 0.0 0.00 0.00 0.00 82 1008.8
20260505192529 12 0.0 0.0 0.00 0.00 0.00 83 1008.7
20260505192015 12 0.0 0.0 0.00 0.00 0.00 82 1008.7
20260505191527 12 0.0 0.0 0.00 0.00 0.00 83 1008.6
20260505191054 12 0.0 0.0 0.00 0.00 0.00 83 1008.6
20260505190525 12 0.0 0.0 0.00 0.00 0.00 83 1008.6
20260505190030 12 0.0 0.0 0.00 0.00 0.00 83 1008.6
20260505185522 12 0.0 0.0 0.00 0.00 0.00 83 1008.6
20260505184515 12 0.0 0.0 0.00 0.00 0.00 82 1008.6
20260505184031 12 0.0 0.0 0.00 0.00 0.00 82 1008.7
20260505183527 12 0.0 0.0 0.00 0.00 0.00 82 1008.7
20260505183032 12 0.0 0.0 0.00 0.00 0.00 82 1008.7
20260505182524 12 0.0 0.0 0.00 0.00 0.00 82 1008.6
20260505182031 12 0.0 0.0 0.00 0.00 0.00 82 1008.6
20260505181522 12 0.0 0.0 0.00 0.00 0.00 82 1008.6
20260505181030 13 0.0 0.0 0.00 0.00 0.00 82 1008.6
20260505180521 13 0.0 0.0 0.00 0.00 0.00 82 1008.6
20260505175525 13 0.0 0.0 0.00 0.00 0.00 81 1008.7
20260505175031 13 0.0 0.0 0.00 0.00 0.00 81 1008.7
20260505174527 13 0.0 0.0 0.00 0.00 0.00 81 1008.7
20260505174022 13 0.0 0.0 0.00 0.00 0.00 81 1008.8
20260505173554 13 0.0 0.0 0.00 0.00 0.00 81 1008.8
20260505173041 13 0.0 0.0 0.00 0.00 0.00 81 1008.9
20260505172026 13 0.0 0.0 0.00 0.00 0.00 81 1008.8
20260505171517 13 0.0 0.0 0.00 0.00 0.00 81 1008.8
20260505171033 13 0.0 0.0 0.00 0.00 0.00 81 1008.8
20260505170544 13 0.0 0.0 0.00 0.00 0.00 81 1008.8
20260505170030 13 0.0 0.0 0.00 0.00 0.00 81 1008.8
20260505165522 13 0.0 0.0 0.00 0.00 0.00 81 1008.7
20260505165029 13 0.0 0.0 0.00 0.00 0.00 81 1008.7
20260505164521 13 0.0 0.0 0.00 0.00 0.00 81 1008.7
20260505164028 13 0.0 0.0 0.00 0.00 0.00 81 1008.7
20260505163523 13 0.0 0.0 0.00 0.00 0.00 81 1008.8
20260505163030 13 0.0 0.0 0.00 0.00 0.00 81 1008.8
20260505162522 13 0.0 0.0 0.00 0.00 0.00 81 1008.8
20260505162029 13 0.0 0.0 0.00 0.00 0.00 81 1008.9
20260505161521 13 0.0 0.0 0.00 0.00 0.00 81 1008.9
20260505161017 13 0.0 0.0 0.00 0.00 0.00 81 1008.9
20260505160529 13 0.0 0.0 0.00 0.00 0.00 81 1009.0
20260505153035 13 0.0 0.0 0.00 0.00 0.00 81 1009.2
20260505152527 13 0.0 0.0 0.00 0.00 0.00 81 1009.3
20260505152033 13 0.0 0.0 0.00 0.00 0.00 81 1009.4
20260505151525 13 0.0 0.0 0.00 0.00 0.00 81 1009.5
20260505151021 13 0.0 0.0 0.00 0.00 0.00 81 1009.4
20260505150553 13 0.0 0.0 0.00 0.00 0.00 80 1009.4
20260505140516 13 0.0 0.0 0.00 0.00 0.00 82 1009.7